Simultaneous Nadir Overpasses (SNOs) Predictions

Prediction of SNOs between AQUA and METOP-C Satellite Orbit:

Table of predicted SNOs for the next 14.0 days since TLE Epoch: 1/2/2021
Index Date (AQUA) Time (AQUA) Lat,Lon (AQUA) SZA (AQUA ) Date (METOP-C) Time (METOP-C) Lat,Lon (METOP-C) SZA (METOP-C ) Distance(km) Time Diff (sec)
1 01/03/2021 17:15:47 73.68, -84.46 96.44 01/03/2021 17:14:54 73.67, -84.42 96.44 1.99 53
2 01/03/2021 18:05:14 -73.76, 83.01 83.48 01/03/2021 18:05:34 -73.74, 83.07 83.51 3.33 20
3 01/03/2021 18:54:55 74.46,-110.95 97.26 01/03/2021 18:56:00 74.44,-107.85 97.15 92.29 65
4 01/06/2021 12:50:02 73.69, -18.03 96.14 01/06/2021 12:49:17 73.68, -18.00 96.13 1.65 45
5 01/06/2021 13:39:28 -73.76, 149.46 83.80 01/06/2021 13:39:56 -73.75, 149.51 83.81 1.73 28
6 01/09/2021 08:24:16 73.70, 48.39 95.78 01/09/2021 08:23:39 73.68, 48.41 95.76 2.62 37
7 01/09/2021 09:13:43 -73.76,-144.11 84.16 01/09/2021 09:14:19 -73.76,-144.06 84.17 1.52 36
8 01/12/2021 03:58:30 73.67, 114.90 95.32 01/12/2021 03:58:02 73.68, 114.82 95.34 2.80 28
9 01/12/2021 04:47:58 -73.78, -77.69 84.57 01/12/2021 04:48:42 -73.77, -77.63 84.59 2.00 44
10 01/14/2021 22:43:06 -73.07, 14.95 85.80 01/14/2021 22:41:59 -73.00, 12.37 85.76 84.07 67
11 01/14/2021 23:32:45 73.69,-178.72 94.87 01/14/2021 23:32:25 73.67,-178.78 94.85 3.27 20
12 01/15/2021 00:22:12 -73.74, -11.18 85.09 01/15/2021 00:23:05 -73.77, -11.21 85.07 3.50 53



Historial Predications of SNOs between AQUA and METOP-C
